This is the latest recevied weather packets stored in our database for station/object WA3NOA-2. If no packets are shown the sender has not sent any weather packets the latest 10 day(s).
| Time | Temp. | Humidity | Pressure | Rain* | Wind** | Luminosity | Snow |
|---|---|---|---|---|---|---|---|
| 1777735088 | 12.22° C | 56% | 1006.9 hPa | 0 mm | - | - | - |
| 1777735027 | 12.22° C | 57% | 1006.9 hPa | 0 mm | - | - | - |
| 1777734727 | 12.22° C | 57% | 1006.8 hPa | 0 mm | - | - | - |
| 1777734427 | 12.78° C | 57% | 1006.8 hPa | 0 mm | - | - | - |
| 1777734188 | 12.22° C | 57% | 1006.9 hPa | 0 mm | - | - | - |
| 1777734127 | 12.22° C | 58% | 1006.9 hPa | 0 mm | - | - | - |
| 1777733827 | 11.67° C | 63% | 1006.6 hPa | 0 mm | - | - | - |
| 1777733527 | 11.67° C | 59% | 1006.6 hPa | 0 mm | - | - | - |
| 1777733289 | 12.22° C | 63% | 1006.7 hPa | 0 mm | - | - | - |
| 1777733227 | 11.67° C | 62% | 1006.7 hPa | 0 mm | - | - | - |
| 1777732927 | 11.67° C | 61% | 1006.7 hPa | 0 mm | - | - | - |
| 1777732627 | 12.78° C | 60% | 1006.6 hPa | 0 mm | - | - | - |
| 1777732388 | 12.22° C | 64% | 1006.6 hPa | 0 mm | - | - | - |
| 1777732327 | 12.22° C | 64% | 1006.6 hPa | 0 mm | - | - | - |
| 1777732027 | 12.22° C | 60% | 1006.5 hPa | 0 mm | - | - | - |
| 1777731727 | 11.67° C | 64% | 1006.6 hPa | 0 mm | - | - | - |
| 1777731489 | 11.67° C | 62% | 1006.6 hPa | 0 mm | - | - | - |
| 1777731427 | 11.67° C | 63% | 1006.5 hPa | 0 mm | - | - | - |
| 1777731127 | 11.67° C | 64% | 1006.7 hPa | 0 mm | - | - | - |
| 1777730589 | 11.11° C | 66% | 1006.7 hPa | 0 mm | - | - | - |
| 1777730527 | 11.11° C | 64% | 1006.7 hPa | 0 mm | - | - | - |
| 1777730227 | 11.11° C | 66% | 1006.7 hPa | 0 mm | - | - | - |
| 1777729927 | 11.11° C | 68% | 1006.8 hPa | 0 mm | - | - | - |
| 1777729688 | 10.56° C | 71% | 1006.8 hPa | 0 mm | - | - | - |
| 1777729627 | 10.56° C | 72% | 1006.8 hPa | 0 mm | - | - | - |
* Rain latest hour (hover to see other rain measurements)
** Current wind speed in m/s (hover to see current wind gust speed)